Location: Quaker Farms
(41.4276°N, 73.1557°W)
Time: 00:50:09
(UTC+00:00)

Altair - Pass Details

Date: 18 June 2021
Orbit: 1501 x 1682 km, 47.2° (Epoch: 23 July)

Event Time Altitude Azimuth Distance (km) Brightness Sun altitude
Rises 15:57:25 0° 186° (S) 4,638 10.2 68.5°
Reaches altitude 10° 16:01:20 10° 172° (S) 3,679 9.9 68.9°
Maximum altitude 16:07:50 22° 126° (SE) 2,907 9.7 69.6°
Drops below altitude 10° 16:14:30 10° 81° (E) 3,781 9.8 70.2°
Sets 16:18:33 0° 67° (ENE) 4,801 10.1 70.5°
